owner,sensor,date,latitude,longitude,vertical_datum,wind_speed,wind_to_direction,wind_speed_of_gust,qcFlag 
DISL,ioos:station:DISL:KATA:1,2013-06-01T00:00:00Z,30.2583,-88.2131,0.0,8.44,135.9,-9999.0,'1111122,1111122,1111122' 
DISL,ioos:station:DISL:KATA:1,2013-06-01T00:30:00Z,30.2583,-88.2131,0.0,7.78,139.2,-9999.0,'1111122,1111122,1111122' 
DISL,ioos:station:DISL:KATA:1,2013-06-01T01:00:00Z,30.2583,-88.2131,0.0,8.2,134.2,-9999.0,'1111122,1111122,1111122' 
DISL,ioos:station:DISL:KATA:1,2013-06-01T01:30:00Z,30.2583,-88.2131,0.0,7.8,142.0,-9999.0,'1111122,1111122,1111122' 
DISL,ioos:station:DISL:KATA:1,2013-06-01T02:00:00Z,30.2583,-88.2131,0.0,8.09,134.8,-9999.0,'1111122,1111122,1111122' 
DISL,ioos:station:DISL:KATA:1,2013-06-01T02:30:00Z,30.2583,-88.2131,0.0,8.22,139.2,-9999.0,'1111122,1111122,1111122' 
DISL,ioos:station:DISL:KATA:1,2013-06-01T03:00:00Z,30.2583,-88.2131,0.0,7.96,144.2,-9999.0,'1111122,1111122,1111122' 
DISL,ioos:station:DISL:KATA:1,2013-06-01T03:30:00Z,30.2583,-88.2131,0.0,8.04,148.0,-9999.0,'1111122,1111122,1111122' 
DISL,ioos:station:DISL:KATA:1,2013-06-01T04:00:00Z,30.2583,-88.2131,0.0,7.23,137.7,-9999.0,'1111122,1111122,1111122' 
DISL,ioos:station:DISL:KATA:1,2013-06-01T04:30:00Z,30.2583,-88.2131,0.0,7.67,137.8,-9999.0,'1111122,1111122,1111122' 
DISL,ioos:station:DISL:KATA:1,2013-06-01T05:00:00Z,30.2583,-88.2131,0.0,7.91,144.3,-9999.0,'1111122,1111122,1111122' 
DISL,ioos:station:DISL:KATA:1,2013-06-01T05:30:00Z,30.2583,-88.2131,0.0,8.33,137.6,-9999.0,'1111122,1111122,1111122' 
DISL,ioos:station:DISL:KATA:1,2013-06-01T06:00:00Z,30.2583,-88.2131,0.0,8.57,143.7,-9999.0,'1111122,1111122,1111122' 
DISL,ioos:station:DISL:KATA:1,2013-06-01T06:30:00Z,30.2583,-88.2131,0.0,8.71,144.4,-9999.0,'1111122,1111122,1111122' 
DISL,ioos:station:DISL:KATA:1,2013-06-01T07:00:00Z,30.2583,-88.2131,0.0,8.18,147.9,-9999.0,'1111122,1111122,1111122' 
DISL,ioos:station:DISL:KATA:1,2013-06-01T07:30:00Z,30.2583,-88.2131,0.0,7.9,146.8,-9999.0,'1111122,1111122,1111122' 
DISL,ioos:station:DISL:KATA:1,2013-06-01T08:00:00Z,30.2583,-88.2131,0.0,7.81,145.5,-9999.0,'1111122,1111122,1111122' 
DISL,ioos:station:DISL:KATA:1,2013-06-01T08:30:00Z,30.2583,-88.2131,0.0,7.34,142.0,-9999.0,'1111122,1111122,1111122' 
DISL,ioos:station:DISL:KATA:1,2013-06-01T09:00:00Z,30.2583,-88.2131,0.0,7.66,135.6,-9999.0,'1111122,1111122,1111122' 
DISL,ioos:station:DISL:KATA:1,2013-06-01T09:30:00Z,30.2583,-88.2131,0.0,7.48,141.2,-9999.0,'1111122,1111122,1111122' 
DISL,ioos:station:DISL:KATA:1,2013-06-01T10:00:00Z,30.2583,-88.2131,0.0,6.15,145.3,-9999.0,'1111122,1111122,1111122' 
DISL,ioos:station:DISL:KATA:1,2013-06-01T10:30:00Z,30.2583,-88.2131,0.0,6.61,140.6,-9999.0,'1111122,1111122,1111122' 
DISL,ioos:station:DISL:KATA:1,2013-06-01T11:00:00Z,30.2583,-88.2131,0.0,7.06,158.1,-9999.0,'1111122,1111122,1111122' 
DISL,ioos:station:DISL:KATA:1,2013-06-01T11:30:00Z,30.2583,-88.2131,0.0,6.85,145.4,-9999.0,'1111122,1111122,1111122' 
DISL,ioos:station:DISL:KATA:1,2013-06-01T12:00:00Z,30.2583,-88.2131,0.0,5.9,146.5,-9999.0,'1111122,1111122,1111122' 
DISL,ioos:station:DISL:KATA:1,2013-06-01T12:30:00Z,30.2583,-88.2131,0.0,7.4,147.1,-9999.0,'1111122,1111122,1111122' 
DISL,ioos:station:DISL:KATA:1,2013-06-01T13:00:00Z,30.2583,-88.2131,0.0,7.01,140.3,-9999.0,'1111122,1111122,1111122' 
DISL,ioos:station:DISL:KATA:1,2013-06-01T13:30:00Z,30.2583,-88.2131,0.0,7.32,131.1,-9999.0,'1111122,1111122,1111122' 
DISL,ioos:station:DISL:KATA:1,2013-06-01T14:00:00Z,30.2583,-88.2131,0.0,8.1,137.2,-9999.0,'1111122,1111122,1111122' 
DISL,ioos:station:DISL:KATA:1,2013-06-01T14:30:00Z,30.2583,-88.2131,0.0,7.84,139.4,-9999.0,'1111122,1111122,1111122' 
DISL,ioos:station:DISL:KATA:1,2013-06-01T15:00:00Z,30.2583,-88.2131,0.0,7.93,136.5,-9999.0,'1111122,1111122,1111122' 
DISL,ioos:station:DISL:KATA:1,2013-06-01T15:30:00Z,30.2583,-88.2131,0.0,8.03,138.2,-9999.0,'1111122,1111122,1111122' 
DISL,ioos:station:DISL:KATA:1,2013-06-01T16:00:00Z,30.2583,-88.2131,0.0,8.82,140.4,-9999.0,'1111122,1111122,1111122' 
DISL,ioos:station:DISL:KATA:1,2013-06-01T16:30:00Z,30.2583,-88.2131,0.0,8.52,143.5,-9999.0,'1111122,1111122,1111122' 
DISL,ioos:station:DISL:KATA:1,2013-06-01T17:00:00Z,30.2583,-88.2131,0.0,8.28,147.0,-9999.0,'1111122,1111122,1111122' 
DISL,ioos:station:DISL:KATA:1,2013-06-01T17:30:00Z,30.2583,-88.2131,0.0,8.06,147.2,-9999.0,'1111122,1111122,1111122' 
DISL,ioos:station:DISL:KATA:1,2013-06-01T18:00:00Z,30.2583,-88.2131,0.0,7.68,147.3,-9999.0,'1111122,1111122,1111122' 
DISL,ioos:station:DISL:KATA:1,2013-06-01T18:30:00Z,30.2583,-88.2131,0.0,6.72,143.7,-9999.0,'1111122,1111122,1111122' 
DISL,ioos:station:DISL:KATA:1,2013-06-01T19:00:00Z,30.2583,-88.2131,0.0,7.43,147.0,-9999.0,'1111122,1111122,1111122' 
DISL,ioos:station:DISL:KATA:1,2013-06-01T19:30:00Z,30.2583,-88.2131,0.0,6.79,150.4,-9999.0,'1111122,1111122,1111122' 
DISL,ioos:station:DISL:KATA:1,2013-06-01T20:00:00Z,30.2583,-88.2131,0.0,6.67,153.7,-9999.0,'1111122,1111122,1111122' 
DISL,ioos:station:DISL:KATA:1,2013-06-01T20:30:00Z,30.2583,-88.2131,0.0,6.82,154.6,-9999.0,'1111122,1111122,1111122' 
DISL,ioos:station:DISL:KATA:1,2013-06-01T21:00:00Z,30.2583,-88.2131,0.0,6.46,159.7,-9999.0,'1111122,1111122,1111122' 
DISL,ioos:station:DISL:KATA:1,2013-06-01T21:30:00Z,30.2583,-88.2131,0.0,6.72,158.8,-9999.0,'1111122,1111122,1111122' 
DISL,ioos:station:DISL:KATA:1,2013-06-01T22:00:00Z,30.2583,-88.2131,0.0,6.68,163.1,-9999.0,'1111122,1111122,1111122' 
DISL,ioos:station:DISL:KATA:1,2013-06-01T22:30:00Z,30.2583,-88.2131,0.0,6.7,156.7,-9999.0,'1111122,1111122,1111122' 
DISL,ioos:station:DISL:KATA:1,2013-06-01T23:00:00Z,30.2583,-88.2131,0.0,5.46,154.1,-9999.0,'1111122,1111122,1111122' 
DISL,ioos:station:DISL:KATA:1,2013-06-01T23:30:00Z,30.2583,-88.2131,0.0,5.68,152.5,-9999.0,'1111122,1111122,1111122' 
DISL,ioos:station:DISL:KATA:1,2013-06-02T00:00:00Z,30.2583,-88.2131,0.0,6.03,158.6,-9999.0,'1111122,1111122,1111122' 
DISL,ioos:station:DISL:KATA:1,2013-06-02T00:30:00Z,30.2583,-88.2131,0.0,5.66,151.7,-9999.0,'1111122,1111122,1111122' 
DISL,ioos:station:DISL:KATA:1,2013-06-02T01:00:00Z,30.2583,-88.2131,0.0,6.26,153.0,-9999.0,'1111122,1111122,1111122' 
DISL,ioos:station:DISL:KATA:1,2013-06-02T01:30:00Z,30.2583,-88.2131,0.0,6.06,154.6,-9999.0,'1111122,1111122,1111122' 
DISL,ioos:station:DISL:KATA:1,2013-06-02T02:00:00Z,30.2583,-88.2131,0.0,6.22,153.7,-9999.0,'1111122,1111122,1111122' 
DISL,ioos:station:DISL:KATA:1,2013-06-02T02:30:00Z,30.2583,-88.2131,0.0,6.2,147.8,-9999.0,'1111122,1111122,1111122' 
DISL,ioos:station:DISL:KATA:1,2013-06-02T03:00:00Z,30.2583,-88.2131,0.0,6.39,155.6,-9999.0,'1111122,1111122,1111122' 
DISL,ioos:station:DISL:KATA:1,2013-06-02T03:30:00Z,30.2583,-88.2131,0.0,6.11,151.5,-9999.0,'1111122,1111122,1111122' 
DISL,ioos:station:DISL:KATA:1,2013-06-02T04:00:00Z,30.2583,-88.2131,0.0,5.94,154.1,-9999.0,'1111122,1111122,1111122' 
DISL,ioos:station:DISL:KATA:1,2013-06-02T04:30:00Z,30.2583,-88.2131,0.0,6.04,147.7,-9999.0,'1111122,1111122,1111122' 
DISL,ioos:station:DISL:KATA:1,2013-06-02T05:00:00Z,30.2583,-88.2131,0.0,6.1,155.4,-9999.0,'1111122,1111122,1111122' 
DISL,ioos:station:DISL:KATA:1,2013-06-02T05:30:00Z,30.2583,-88.2131,0.0,5.27,158.6,-9999.0,'1111122,1111122,1111122' 
DISL,ioos:station:DISL:KATA:1,2013-06-02T06:00:00Z,30.2583,-88.2131,0.0,4.84,157.6,-9999.0,'1111122,1111122,1111122' 
DISL,ioos:station:DISL:KATA:1,2013-06-02T06:30:00Z,30.2583,-88.2131,0.0,5.09,163.1,-9999.0,'1111122,1111122,1111122' 
DISL,ioos:station:DISL:KATA:1,2013-06-02T07:00:00Z,30.2583,-88.2131,0.0,5.63,169.3,-9999.0,'1111122,1111122,1111122' 
DISL,ioos:station:DISL:KATA:1,2013-06-02T07:30:00Z,30.2583,-88.2131,0.0,5.42,175.2,-9999.0,'1111122,1111122,1111122' 
DISL,ioos:station:DISL:KATA:1,2013-06-02T08:00:00Z,30.2583,-88.2131,0.0,4.82,179.1,-9999.0,'1111122,1111122,1111122' 
DISL,ioos:station:DISL:KATA:1,2013-06-02T08:30:00Z,30.2583,-88.2131,0.0,4.64,187.3,-9999.0,'1111122,1111122,1111122' 
DISL,ioos:station:DISL:KATA:1,2013-06-02T09:00:00Z,30.2583,-88.2131,0.0,4.06,200.9,-9999.0,'1111122,1111122,1111122' 
DISL,ioos:station:DISL:KATA:1,2013-06-02T09:30:00Z,30.2583,-88.2131,0.0,3.47,212.2,-9999.0,'1111122,1111122,1111122' 
DISL,ioos:station:DISL:KATA:1,2013-06-02T10:00:00Z,30.2583,-88.2131,0.0,3.09,239.8,-9999.0,'1111122,1111122,1111122' 
DISL,ioos:station:DISL:KATA:1,2013-06-02T10:30:00Z,30.2583,-88.2131,0.0,2.23,279.6,-9999.0,'1111122,1111122,1111122' 
DISL,ioos:station:DISL:KATA:1,2013-06-02T11:00:00Z,30.2583,-88.2131,0.0,2.07,288.6,-9999.0,'1111122,1111122,1111122' 
DISL,ioos:station:DISL:KATA:1,2013-06-02T11:30:00Z,30.2583,-88.2131,0.0,2.35,307.2,-9999.0,'1111122,1111122,1111122' 
DISL,ioos:station:DISL:KATA:1,2013-06-02T12:00:00Z,30.2583,-88.2131,0.0,2.1,348.2,-9999.0,'1111122,1111122,1111122' 
DISL,ioos:station:DISL:KATA:1,2013-06-02T12:30:00Z,30.2583,-88.2131,0.0,2.04,13.67,-9999.0,'1111122,1111122,1111122' 
DISL,ioos:station:DISL:KATA:1,2013-06-02T13:00:00Z,30.2583,-88.2131,0.0,2.36,345.4,-9999.0,'1111122,1111122,1111122' 
DISL,ioos:station:DISL:KATA:1,2013-06-02T13:30:00Z,30.2583,-88.2131,0.0,7.99,360.0,-9999.0,'1111122,1111122,1111122' 
DISL,ioos:station:DISL:KATA:1,2013-06-02T14:00:00Z,30.2583,-88.2131,0.0,6.15,20.24,-9999.0,'1111122,1111122,1111122' 
DISL,ioos:station:DISL:KATA:1,2013-06-02T14:30:00Z,30.2583,-88.2131,0.0,4.58,52.55,-9999.0,'1111122,1111122,1111122' 
DISL,ioos:station:DISL:KATA:1,2013-06-02T15:00:00Z,30.2583,-88.2131,0.0,3.95,59.19,-9999.0,'1111122,1111122,1111122' 
DISL,ioos:station:DISL:KATA:1,2013-06-02T15:30:00Z,30.2583,-88.2131,0.0,6.07,73.52,-9999.0,'1111122,1111122,1111122' 
DISL,ioos:station:DISL:KATA:1,2013-06-02T16:00:00Z,30.2583,-88.2131,0.0,5.72,74.24,-9999.0,'1111122,1111122,1111122' 
DISL,ioos:station:DISL:KATA:1,2013-06-02T16:30:00Z,30.2583,-88.2131,0.0,4.0,90.7,-9999.0,'1111122,1111122,1111122' 
DISL,ioos:station:DISL:KATA:1,2013-06-02T17:00:00Z,30.2583,-88.2131,0.0,1.65,114.7,-9999.0,'1111122,1111122,1111122' 
DISL,ioos:station:DISL:KATA:1,2013-06-02T17:30:00Z,30.2583,-88.2131,0.0,3.4,164.9,-9999.0,'1111122,1111122,1111122' 
DISL,ioos:station:DISL:KATA:1,2013-06-02T18:00:00Z,30.2583,-88.2131,0.0,4.99,162.6,-9999.0,'1111122,1111122,1111122' 
DISL,ioos:station:DISL:KATA:1,2013-06-02T18:30:00Z,30.2583,-88.2131,0.0,5.03,155.4,-9999.0,'1111122,1111122,1111122' 
DISL,ioos:station:DISL:KATA:1,2013-06-02T19:00:00Z,30.2583,-88.2131,0.0,6.49,154.3,-9999.0,'1111122,1111122,1111122' 
DISL,ioos:station:DISL:KATA:1,2013-06-02T19:30:00Z,30.2583,-88.2131,0.0,6.94,162.7,-9999.0,'1111122,1111122,1111122' 
DISL,ioos:station:DISL:KATA:1,2013-06-02T20:00:00Z,30.2583,-88.2131,0.0,6.8,168.3,-9999.0,'1111122,1111122,1111122' 
DISL,ioos:station:DISL:KATA:1,2013-06-02T20:30:00Z,30.2583,-88.2131,0.0,6.17,163.1,-9999.0,'1111122,1111122,1111122' 
DISL,ioos:station:DISL:KATA:1,2013-06-02T21:00:00Z,30.2583,-88.2131,0.0,6.21,163.1,-9999.0,'1111122,1111122,1111122' 
DISL,ioos:station:DISL:KATA:1,2013-06-02T21:30:00Z,30.2583,-88.2131,0.0,6.17,172.5,-9999.0,'1111122,1111122,1111122' 
DISL,ioos:station:DISL:KATA:1,2013-06-02T22:00:00Z,30.2583,-88.2131,0.0,6.8,200.1,-9999.0,'1111122,1111122,1111122' 
DISL,ioos:station:DISL:KATA:1,2013-06-02T22:30:00Z,30.2583,-88.2131,0.0,7.01,207.6,-9999.0,'1111122,1111122,1111122' 
DISL,ioos:station:DISL:KATA:1,2013-06-02T23:00:00Z,30.2583,-88.2131,0.0,6.78,206.1,-9999.0,'1111122,1111122,1111122' 
DISL,ioos:station:DISL:KATA:1,2013-06-02T23:30:00Z,30.2583,-88.2131,0.0,7.76,203.1,-9999.0,'1111122,1111122,1111122' 
DISL,ioos:station:DISL:KATA:1,2013-06-03T00:00:00Z,30.2583,-88.2131,0.0,6.9,199.7,-9999.0,'1111122,1111122,1111122' 
DISL,ioos:station:DISL:KATA:1,2013-06-03T00:30:00Z,30.2583,-88.2131,0.0,5.99,197.8,-9999.0,'1111122,1111122,1111122' 
DISL,ioos:station:DISL:KATA:1,2013-06-03T01:00:00Z,30.2583,-88.2131,0.0,4.71,201.2,-9999.0,'1111122,1111122,1111122' 
DISL,ioos:station:DISL:KATA:1,2013-06-03T01:30:00Z,30.2583,-88.2131,0.0,4.48,206.9,-9999.0,'1111122,1111122,1111122' 
DISL,ioos:station:DISL:KATA:1,2013-06-03T02:00:00Z,30.2583,-88.2131,0.0,3.16,189.9,-9999.0,'1111122,1111122,1111122' 
DISL,ioos:station:DISL:KATA:1,2013-06-03T02:30:00Z,30.2583,-88.2131,0.0,1.43,202.4,-9999.0,'1111122,1111122,1111122' 
DISL,ioos:station:DISL:KATA:1,2013-06-03T03:00:00Z,30.2583,-88.2131,0.0,2.91,186.7,-9999.0,'1111122,1111122,1111122' 
DISL,ioos:station:DISL:KATA:1,2013-06-03T03:30:00Z,30.2583,-88.2131,0.0,2.66,113.3,-9999.0,'1111122,1111122,1111122' 
DISL,ioos:station:DISL:KATA:1,2013-06-03T04:00:00Z,30.2583,-88.2131,0.0,7.2,52.56,-9999.0,'1111122,1111122,1111122' 
DISL,ioos:station:DISL:KATA:1,2013-06-03T04:30:00Z,30.2583,-88.2131,0.0,2.48,86.0,-9999.0,'1111122,1111122,1111122' 
DISL,ioos:station:DISL:KATA:1,2013-06-03T05:00:00Z,30.2583,-88.2131,0.0,1.33,87.7,-9999.0,'1111122,1111122,1111122' 
DISL,ioos:station:DISL:KATA:1,2013-06-03T05:30:00Z,30.2583,-88.2131,0.0,0.67,179.4,-9999.0,'1111122,1111122,1111122' 
DISL,ioos:station:DISL:KATA:1,2013-06-03T06:00:00Z,30.2583,-88.2131,0.0,3.07,163.7,-9999.0,'1111122,1111122,1111122' 
DISL,ioos:station:DISL:KATA:1,2013-06-03T06:30:00Z,30.2583,-88.2131,0.0,1.81,126.2,-9999.0,'1111122,1111122,1111122' 
DISL,ioos:station:DISL:KATA:1,2013-06-03T07:00:00Z,30.2583,-88.2131,0.0,1.7,84.8,-9999.0,'1111122,1111122,1111122' 
DISL,ioos:station:DISL:KATA:1,2013-06-03T07:30:00Z,30.2583,-88.2131,0.0,2.65,50.31,-9999.0,'1111122,1111122,1111122' 
DISL,ioos:station:DISL:KATA:1,2013-06-03T08:00:00Z,30.2583,-88.2131,0.0,2.24,109.1,-9999.0,'1111122,1111122,1111122' 
DISL,ioos:station:DISL:KATA:1,2013-06-03T08:30:00Z,30.2583,-88.2131,0.0,1.83,105.4,-9999.0,'1111122,1111122,1111122' 
DISL,ioos:station:DISL:KATA:1,2013-06-03T09:00:00Z,30.2583,-88.2131,0.0,2.03,131.0,-9999.0,'1111122,1111122,1111122' 
DISL,ioos:station:DISL:KATA:1,2013-06-03T09:30:00Z,30.2583,-88.2131,0.0,2.1,152.2,-9999.0,'1111122,1111122,1111122' 
DISL,ioos:station:DISL:KATA:1,2013-06-03T10:00:00Z,30.2583,-88.2131,0.0,3.39,161.5,-9999.0,'1111122,1111122,1111122' 
DISL,ioos:station:DISL:KATA:1,2013-06-03T10:30:00Z,30.2583,-88.2131,0.0,3.9,184.1,-9999.0,'1111122,1111122,1111122' 
DISL,ioos:station:DISL:KATA:1,2013-06-03T11:00:00Z,30.2583,-88.2131,0.0,4.3,197.3,-9999.0,'1111122,1111122,1111122' 
DISL,ioos:station:DISL:KATA:1,2013-06-03T11:30:00Z,30.2583,-88.2131,0.0,4.17,202.0,-9999.0,'1111122,1111122,1111122' 
DISL,ioos:station:DISL:KATA:1,2013-06-03T12:00:00Z,30.2583,-88.2131,0.0,4.25,210.4,-9999.0,'1111122,1111122,1111122' 
DISL,ioos:station:DISL:KATA:1,2013-06-03T12:30:00Z,30.2583,-88.2131,0.0,3.92,210.1,-9999.0,'1111122,1111122,1111122' 
DISL,ioos:station:DISL:KATA:1,2013-06-03T13:00:00Z,30.2583,-88.2131,0.0,3.52,227.0,-9999.0,'1111122,1111122,1111122' 
DISL,ioos:station:DISL:KATA:1,2013-06-03T13:30:00Z,30.2583,-88.2131,0.0,2.82,249.1,-9999.0,'1111122,1111122,1111122' 
DISL,ioos:station:DISL:KATA:1,2013-06-03T14:00:00Z,30.2583,-88.2131,0.0,3.43,258.1,-9999.0,'1111122,1111122,1111122' 
DISL,ioos:station:DISL:KATA:1,2013-06-03T14:30:00Z,30.2583,-88.2131,0.0,3.76,262.0,-9999.0,'1111122,1111122,1111122' 
DISL,ioos:station:DISL:KATA:1,2013-06-03T15:00:00Z,30.2583,-88.2131,0.0,3.38,257.7,-9999.0,'1111122,1111122,1111122' 
DISL,ioos:station:DISL:KATA:1,2013-06-03T15:30:00Z,30.2583,-88.2131,0.0,2.73,246.7,-9999.0,'1111122,1111122,1111122' 
DISL,ioos:station:DISL:KATA:1,2013-06-03T16:00:00Z,30.2583,-88.2131,0.0,2.3,254.8,-9999.0,'1111122,1111122,1111122' 
DISL,ioos:station:DISL:KATA:1,2013-06-03T16:30:00Z,30.2583,-88.2131,0.0,1.76,263.8,-9999.0,'1111122,1111122,1111122' 
DISL,ioos:station:DISL:KATA:1,2013-06-03T17:00:00Z,30.2583,-88.2131,0.0,1.57,210.5,-9999.0,'1111122,1111122,1111122' 
DISL,ioos:station:DISL:KATA:1,2013-06-03T17:30:00Z,30.2583,-88.2131,0.0,1.41,169.0,-9999.0,'1111122,1111122,1111122' 
DISL,ioos:station:DISL:KATA:1,2013-06-03T18:00:00Z,30.2583,-88.2131,0.0,1.75,164.6,-9999.0,'1111122,1111122,1111122' 
DISL,ioos:station:DISL:KATA:1,2013-06-03T18:30:00Z,30.2583,-88.2131,0.0,3.49,155.7,-9999.0,'1111122,1111122,1111122' 
DISL,ioos:station:DISL:KATA:1,2013-06-03T19:00:00Z,30.2583,-88.2131,0.0,2.6,160.7,-9999.0,'1111122,1111122,1111122' 
DISL,ioos:station:DISL:KATA:1,2013-06-03T19:30:00Z,30.2583,-88.2131,0.0,2.88,156.3,-9999.0,'1111122,1111122,1111122' 
DISL,ioos:station:DISL:KATA:1,2013-06-03T20:00:00Z,30.2583,-88.2131,0.0,3.12,176.1,-9999.0,'1111122,1111122,1111122' 
DISL,ioos:station:DISL:KATA:1,2013-06-03T20:30:00Z,30.2583,-88.2131,0.0,3.63,189.0,-9999.0,'1111122,1111122,1111122' 
DISL,ioos:station:DISL:KATA:1,2013-06-03T21:00:00Z,30.2583,-88.2131,0.0,3.65,181.3,-9999.0,'1111122,1111122,1111122' 
DISL,ioos:station:DISL:KATA:1,2013-06-03T21:30:00Z,30.2583,-88.2131,0.0,3.87,173.0,-9999.0,'1111122,1111122,1111122' 
DISL,ioos:station:DISL:KATA:1,2013-06-03T22:00:00Z,30.2583,-88.2131,0.0,4.28,170.3,-9999.0,'1111122,1111122,1111122' 
DISL,ioos:station:DISL:KATA:1,2013-06-03T22:30:00Z,30.2583,-88.2131,0.0,4.84,168.7,-9999.0,'1111122,1111122,1111122' 
DISL,ioos:station:DISL:KATA:1,2013-06-03T23:00:00Z,30.2583,-88.2131,0.0,4.82,173.9,-9999.0,'1111122,1111122,1111122' 
DISL,ioos:station:DISL:KATA:1,2013-06-03T23:30:00Z,30.2583,-88.2131,0.0,3.48,169.0,-9999.0,'1111122,1111122,1111122' 
DISL,ioos:station:DISL:KATA:1,2013-06-04T00:00:00Z,30.2583,-88.2131,0.0,3.71,156.6,-9999.0,'1111122,1111122,1111122' 
DISL,ioos:station:DISL:KATA:1,2013-06-04T00:30:00Z,30.2583,-88.2131,0.0,4.0,172.8,-9999.0,'1111122,1111122,1111122' 
DISL,ioos:station:DISL:KATA:1,2013-06-04T01:00:00Z,30.2583,-88.2131,0.0,3.6,174.8,-9999.0,'1111122,1111122,1111122' 
DISL,ioos:station:DISL:KATA:1,2013-06-04T01:30:00Z,30.2583,-88.2131,0.0,2.64,147.5,-9999.0,'1111122,1111122,1111122' 
DISL,ioos:station:DISL:KATA:1,2013-06-04T02:00:00Z,30.2583,-88.2131,0.0,4.31,146.0,-9999.0,'1111122,1111122,1111122' 
DISL,ioos:station:DISL:KATA:1,2013-06-04T02:30:00Z,30.2583,-88.2131,0.0,5.05,152.8,-9999.0,'1111122,1111122,1111122' 
DISL,ioos:station:DISL:KATA:1,2013-06-04T03:00:00Z,30.2583,-88.2131,0.0,5.92,166.3,-9999.0,'1111122,1111122,1111122' 
DISL,ioos:station:DISL:KATA:1,2013-06-04T03:30:00Z,30.2583,-88.2131,0.0,6.52,162.5,-9999.0,'1111122,1111122,1111122' 
DISL,ioos:station:DISL:KATA:1,2013-06-04T04:00:00Z,30.2583,-88.2131,0.0,6.51,161.9,-9999.0,'1111122,1111122,1111122' 
DISL,ioos:station:DISL:KATA:1,2013-06-04T04:30:00Z,30.2583,-88.2131,0.0,5.69,170.0,-9999.0,'1111122,1111122,1111122' 
DISL,ioos:station:DISL:KATA:1,2013-06-04T05:00:00Z,30.2583,-88.2131,0.0,5.65,177.8,-9999.0,'1111122,1111122,1111122' 
DISL,ioos:station:DISL:KATA:1,2013-06-04T05:30:00Z,30.2583,-88.2131,0.0,5.33,175.3,-9999.0,'1111122,1111122,1111122' 
DISL,ioos:station:DISL:KATA:1,2013-06-04T06:00:00Z,30.2583,-88.2131,0.0,5.46,172.5,-9999.0,'1111122,1111122,1111122' 
DISL,ioos:station:DISL:KATA:1,2013-06-04T06:30:00Z,30.2583,-88.2131,0.0,4.95,171.8,-9999.0,'1111122,1111122,1111122' 
DISL,ioos:station:DISL:KATA:1,2013-06-04T07:00:00Z,30.2583,-88.2131,0.0,4.49,171.3,-9999.0,'1111122,1111122,1111122' 
DISL,ioos:station:DISL:KATA:1,2013-06-04T07:30:00Z,30.2583,-88.2131,0.0,2.96,185.1,-9999.0,'1111122,1111122,1111122' 
DISL,ioos:station:DISL:KATA:1,2013-06-04T08:00:00Z,30.2583,-88.2131,0.0,2.6,168.4,-9999.0,'1111122,1111122,1111122' 
DISL,ioos:station:DISL:KATA:1,2013-06-04T08:30:00Z,30.2583,-88.2131,0.0,3.08,161.5,-9999.0,'1111122,1111122,1111122' 
DISL,ioos:station:DISL:KATA:1,2013-06-04T09:00:00Z,30.2583,-88.2131,0.0,1.43,151.4,-9999.0,'1111122,1111122,1111122' 
DISL,ioos:station:DISL:KATA:1,2013-06-04T09:30:00Z,30.2583,-88.2131,0.0,2.35,134.5,-9999.0,'1111122,1111122,1111122' 
DISL,ioos:station:DISL:KATA:1,2013-06-04T10:00:00Z,30.2583,-88.2131,0.0,1.71,142.9,-9999.0,'1111122,1111122,1111122' 
DISL,ioos:station:DISL:KATA:1,2013-06-04T10:30:00Z,30.2583,-88.2131,0.0,1.26,143.9,-9999.0,'1111122,1111122,1111122' 
DISL,ioos:station:DISL:KATA:1,2013-06-04T11:00:00Z,30.2583,-88.2131,0.0,3.49,109.4,-9999.0,'1111122,1111122,1111122' 
DISL,ioos:station:DISL:KATA:1,2013-06-04T11:30:00Z,30.2583,-88.2131,0.0,3.01,124.1,-9999.0,'1111122,1111122,1111122' 
DISL,ioos:station:DISL:KATA:1,2013-06-04T12:00:00Z,30.2583,-88.2131,0.0,2.42,117.7,-9999.0,'1111122,1111122,1111122' 
DISL,ioos:station:DISL:KATA:1,2013-06-04T12:30:00Z,30.2583,-88.2131,0.0,2.47,92.7,-9999.0,'1111122,1111122,1111122' 
DISL,ioos:station:DISL:KATA:1,2013-06-04T13:00:00Z,30.2583,-88.2131,0.0,2.75,102.1,-9999.0,'1111122,1111122,1111122' 
DISL,ioos:station:DISL:KATA:1,2013-06-04T13:30:00Z,30.2583,-88.2131,0.0,3.38,94.6,-9999.0,'1111122,1111122,1111122' 
DISL,ioos:station:DISL:KATA:1,2013-06-04T14:00:00Z,30.2583,-88.2131,0.0,4.05,103.5,-9999.0,'1111122,1111122,1111122' 
DISL,ioos:station:DISL:KATA:1,2013-06-04T14:30:00Z,30.2583,-88.2131,0.0,4.93,85.4,-9999.0,'1111122,1111122,1111122' 
DISL,ioos:station:DISL:KATA:1,2013-06-04T15:00:00Z,30.2583,-88.2131,0.0,4.76,80.9,-9999.0,'1111122,1111122,1111122' 
DISL,ioos:station:DISL:KATA:1,2013-06-04T15:30:00Z,30.2583,-88.2131,0.0,5.1,120.7,-9999.0,'1111122,1111122,1111122' 
DISL,ioos:station:DISL:KATA:1,2013-06-04T16:00:00Z,30.2583,-88.2131,0.0,5.19,121.1,-9999.0,'1111122,1111122,1111122' 
DISL,ioos:station:DISL:KATA:1,2013-06-04T16:30:00Z,30.2583,-88.2131,0.0,4.91,126.2,-9999.0,'1111122,1111122,1111122' 
DISL,ioos:station:DISL:KATA:1,2013-06-04T17:00:00Z,30.2583,-88.2131,0.0,4.48,124.4,-9999.0,'1111122,1111122,1111122' 
DISL,ioos:station:DISL:KATA:1,2013-06-04T17:30:00Z,30.2583,-88.2131,0.0,5.11,130.9,-9999.0,'1111122,1111122,1111122' 
DISL,ioos:station:DISL:KATA:1,2013-06-04T18:00:00Z,30.2583,-88.2131,0.0,5.76,136.3,-9999.0,'1111122,1111122,1111122' 
DISL,ioos:station:DISL:KATA:1,2013-06-04T18:30:00Z,30.2583,-88.2131,0.0,5.82,139.8,-9999.0,'1111122,1111122,1111122' 
DISL,ioos:station:DISL:KATA:1,2013-06-04T19:00:00Z,30.2583,-88.2131,0.0,5.45,150.8,-9999.0,'1111122,1111122,1111122' 
DISL,ioos:station:DISL:KATA:1,2013-06-04T19:30:00Z,30.2583,-88.2131,0.0,5.59,151.4,-9999.0,'1111122,1111122,1111122' 
DISL,ioos:station:DISL:KATA:1,2013-06-04T20:00:00Z,30.2583,-88.2131,0.0,5.45,151.2,-9999.0,'1111122,1111122,1111122' 
DISL,ioos:station:DISL:KATA:1,2013-06-04T20:30:00Z,30.2583,-88.2131,0.0,5.52,157.5,-9999.0,'1111122,1111122,1111122' 
DISL,ioos:station:DISL:KATA:1,2013-06-04T21:00:00Z,30.2583,-88.2131,0.0,6.34,146.6,-9999.0,'1111122,1111122,1111122' 
DISL,ioos:station:DISL:KATA:1,2013-06-04T21:30:00Z,30.2583,-88.2131,0.0,6.84,147.7,-9999.0,'1111122,1111122,1111122' 
DISL,ioos:station:DISL:KATA:1,2013-06-04T22:00:00Z,30.2583,-88.2131,0.0,7.19,143.0,-9999.0,'1111122,1111122,1111122' 
DISL,ioos:station:DISL:KATA:1,2013-06-04T22:30:00Z,30.2583,-88.2131,0.0,7.6,134.3,-9999.0,'1111122,1111122,1111122' 
DISL,ioos:station:DISL:KATA:1,2013-06-04T23:00:00Z,30.2583,-88.2131,0.0,7.65,130.7,-9999.0,'1111122,1111122,1111122' 
DISL,ioos:station:DISL:KATA:1,2013-06-04T23:30:00Z,30.2583,-88.2131,0.0,6.75,137.3,-9999.0,'1111122,1111122,1111122' 
DISL,ioos:station:DISL:KATA:1,2013-06-05T00:00:00Z,30.2583,-88.2131,0.0,6.88,143.8,-9999.0,'1111122,1111122,1111122' 
DISL,ioos:station:DISL:KATA:1,2013-06-05T00:30:00Z,30.2583,-88.2131,0.0,6.68,142.0,-9999.0,'1111122,1111122,1111122' 
DISL,ioos:station:DISL:KATA:1,2013-06-05T01:00:00Z,30.2583,-88.2131,0.0,6.49,133.9,-9999.0,'1111122,1111122,1111122' 
DISL,ioos:station:DISL:KATA:1,2013-06-05T01:30:00Z,30.2583,-88.2131,0.0,6.85,136.4,-9999.0,'1111122,1111122,1111122' 
DISL,ioos:station:DISL:KATA:1,2013-06-05T02:00:00Z,30.2583,-88.2131,0.0,9.77,142.1,-9999.0,'1111122,1111122,1111122' 
DISL,ioos:station:DISL:KATA:1,2013-06-05T02:30:00Z,30.2583,-88.2131,0.0,9.75,153.8,-9999.0,'1111122,1111122,1111122' 
DISL,ioos:station:DISL:KATA:1,2013-06-05T03:00:00Z,30.2583,-88.2131,0.0,9.54,159.1,-9999.0,'1111122,1111122,1111122' 
DISL,ioos:station:DISL:KATA:1,2013-06-05T03:30:00Z,30.2583,-88.2131,0.0,8.13,165.7,-9999.0,'1111122,1111122,1111122' 
DISL,ioos:station:DISL:KATA:1,2013-06-05T04:00:00Z,30.2583,-88.2131,0.0,8.03,164.7,-9999.0,'1111122,1111122,1111122' 
DISL,ioos:station:DISL:KATA:1,2013-06-05T04:30:00Z,30.2583,-88.2131,0.0,7.63,171.5,-9999.0,'1111122,1111122,1111122' 